Miscellaneous Local Product
Issued by NWS North Platte, NE

Home | Current Version | Previous Version | Graphics & Text | Print | Product List | Glossary On
Versions: 1 2 3 4 5 6 7 8 9 10 11 12 13 14 15 16 17 18 19 20 21 22 23 24 25 26 27 28 29 30 31 32 33 34 35 36 37 38 39 40 41 42 43 44 45 46 47 48 49 50
000
AXUS43 KLBF 232010
MISLBF


WESTERN AND NORTH CENTRAL NEBRASKA HOURLY WEATHER ROUNDUP
NATIONAL WEATHER SERVICE NORTH PLATTE NE
300 PM CDT WED AUG 23 2017

NOTE: "FAIR" INDICATES FEW OR NO CLOUDS BELOW 12,000 FEET WITH NO
SIGNIFICANT WEATHER AND/OR OBSTRUCTIONS TO VISIBILITY.

NOTE: STATIONS NOT REPORTING VARIABLES SUCH AS SKY/WEATHER OR
PRESSURE ARE PROVIDED BY RAWS AND APRS NETWORKS AND ARE NOT UNDER
NATIONAL WEATHER SERVICE QUALITY CONTROL.

...OBSERVATIONS IN AND NEAR THE EASTERN PANHANDLE OF NEBRASKA...

CITY           SKY/WX    TMP DP  RH WIND       PRES   REMARKS
PINE RIDGE     SUNNY     90  55  30 VRB5      30.00F
GORDON         FAIR      89  56  32 S5        30.01F
CHADRON        SUNNY     91  52  26 VRB6      29.99F
ALLIANCE       SUNNY     84  57  39 S12       30.04F
SIDNEY         SUNNY     88  55  32 VRB6      30.09F
$$

...OBSERVATIONS IN NORTHERN NEBRASKA AND FAR SOUTHERN SOUTH DAKOTA...

CITY           SKY/WX    TMP DP  RH WIND       PRES   REMARKS
WINNER         FAIR      87  62  43 SW14G24   29.96F
VALENTINE      SUNNY     90  58  33 SW16G26   29.99F
THEDFORD       SUNNY     84  58  41 S18G26    30.05F
AINSWORTH      SUNNY     83  60  45 S20       30.02F
O`NEILL        SUNNY     81  56  43 S14       30.04F
ORD            SUNNY     79  54  41 S16G22    30.07F
BROKEN BOW     SUNNY     82  53  36 SW15G25   30.08F
VALENTINE NWR    N/A     82  58  44 SW15G24     N/A
HALSEY           N/A     82  55  38 S10G23      N/A
BUTTE            N/A     81  59  46 S10G22      N/A
CHAMBERS         N/A     81  54  39 W9          N/A
EWING            N/A     80  64  58 S10G17      N/A
$$

...OBSERVATIONS IN SOUTHWEST NEBRASKA AND FAR NORTHEAST COLORADO...

CITY           SKY/WX    TMP DP  RH WIND       PRES   REMARKS
WRAY           FAIR      84  59  42 S14G24    30.09F
HOLYOKE        FAIR      84  63  48 S14       30.09F
IMPERIAL       SUNNY     85  58  39 S17G24    30.08F
OGALLALA       SUNNY     82  62  49 S13       30.07F
NORTH PLATTE   SUNNY     82  57  42 S17G25    30.06F
MCCOOK         SUNNY     83  53  35 S15       30.09F
LEXINGTON      SUNNY     81  51  35 S17       30.10F
STAPLETON        N/A     83  59  44 CALM        N/A
GOTHENBURG       N/A     79  47  32 S12         N/A
CALLAWAY         N/A     79  57  46 S20         N/A
$$

...OBSERVATIONS IN CENTRAL LINCOLN COUNTY AREA...

CITY           SKY/WX    TMP DP  RH WIND       PRES   REMARKS
N.P. AIRPORT   SUNNY     82  57  42 S17G25    30.06F
N.P. DOWNTOWN    N/A     83  61  46 SW5G12      N/A
N.P. SOUTHEAST   N/A     81  60  48 S12G22      N/A
N.P. HILLCREST   N/A     81  59  47 S15G23      N/A
$$

...SOME OBSERVATIONS FROM AROUND THE REGION...

CITY           SKY/WX    TMP DP  RH WIND       PRES   REMARKS
DENVER         MOSUNNY   88  38  17 VRB5      30.14F
LIMON          SUNNY     83  53  35 S14G22    30.17F
ASPEN          LGT RAIN  63  47  55 W17G23    30.37R
LARAMIE        LGT RAIN  73  42  32 NE8       30.27F
CASPER         CLOUDY    85  29  13 SW8       30.12F
CHEYENNE       PTSUNNY   81  36  19 NE7       30.19S
SCOTTSBLUFF    SUNNY     87  61  41 E9        30.05F
GRAND ISLAND   SUNNY     79  58  48 S12G18    30.11F
OMAHA          SUNNY     79  53  40 CALM      30.10F
SIOUX FALLS    MOSUNNY   80  58  46 S10       30.05F
PIERRE         SUNNY     83  58  42 E6        29.94F
RAPID CITY     SUNNY     87  52  29 VRB3      30.00F
BISMARCK       SUNNY     83  53  35 S7        29.99F
KANSAS CITY    SUNNY     78  58  49 N6        30.11F
HILL CITY      SUNNY     86  47  25 S14       30.11F
WICHITA        SUNNY     86  51  29 E8        30.08F
DODGE CITY     SUNNY     84  47  27 S9        30.13F
OKLAHOMA CITY  PTSUNNY   80  67  64 NE9       30.05F
DALLAS         CLOUDY    88  69  53 NE6       29.96F HX  92
AMARILLO       CLOUDY    75  65  70 SE7       30.18F
$$




USA.gov is the U.S. government's official web portal to all federal, state and local government web resources and services.